Simultaneous Nadir Overpasses (SNOs) Predictions

Prediction of SNOs between GOES-15 and TERRA Satellite Orbit:

Table of predicted SNOs for the next 14.0 days since TLE Epoch: 7/27/2024
Index Date Time (GOES-15) GOES-15 Lat,Lon TERRA Lat,Lon Distance(km) Time Diff (sec)
1 07/28/2024 05:40:20 0.02, 61.22 -0.03, 61.37 18.29 80
2 07/30/2024 05:22:46 0.05, 61.26 -0.85, 65.62 495.26 80
3 07/30/2024 17:40:06 -0.01, 61.39 -0.14, 60.75 72.26 80
4 08/01/2024 17:25:11 -0.02, 61.43 0.72, 64.99 404.34 80
5 08/02/2024 05:42:25 -0.02, 61.33 0.22, 60.14 134.78 80
6 08/04/2024 05:27:29 -0.01, 61.38 -0.61, 64.40 341.81 80
7 08/04/2024 17:44:50 0.05, 61.51 -0.37, 59.52 226.05 80
8 08/06/2024 17:29:54 0.04, 61.56 0.48, 63.77 250.83 80
9 08/07/2024 05:47:08 -0.08, 61.46 0.43, 58.92 287.88 80
10 08/09/2024 05:32:11 -0.07, 61.51 -0.40, 63.18 189.09 80
11 08/09/2024 17:49:32 0.11, 61.64 -0.58, 58.30 378.91 80
